sat.trackr.live / text

‹ back to catalog

YUNHAI-2 01F

NORAD 43915 · 2018-112G

PAYLOAD ACTIVE UNKNOWN

§ Identity

Operator
Country
PRC
Launch date
2018-12-29
Launch site
JSC
Launch vehicle
Mass (kg)
RCS (m²)

External: N2YO · Heavens-Above · Gunter

§ Orbital elements

Epoch: 2026-09-20T04:55:05.056032Z

Period
100.77 min
Inclination
50.0105°
Eccentricity
0.0007185
Mean motion
14.29059351 rev/d
Perigee alt
789.7 km
Apogee alt
800.0 km
Semi-major
7,173.0 km
B*
-2.2426e-6
RAAN
184.3039°
Arg perigee
302.9467°
Mean anomaly
57.0757°
Rev number
40,189

§ Raw data

YUNHAI-2 01F1 43915U 18112G   26263.20491963 -.00000167  00000+0 -22426-5 0  99942 43915  50.0105 184.3039 0007185 302.9467  57.0757 14.29059351401897

JSON: /api/v1/satellites/43915 · /tle

For live sub-satellite position, see the globe view (requires WebGL).

§ Visibility from observer

Set your observer location to see the next 7 days of passes ≥ 10°. The values pass through the URL so the page stays shareable.

No JS? Fill the form by hand. The geolocation button needs JavaScript.